Home > Weather > St. Paul > Past weeks

Flag for U.S.A. Weather for the Past 2 Weeks in St. Paul, Minnesota, U.S.A.

Now
33 °F

Overcast.


Feels Like: 21 °F
Forecast: 11 / 19 °F
Wind: 22 mph from Northwest

Location: St. Paul Downtown Holman Field

Current Time: Feb 7, 2016 at 7:10:48 PM

Latest Report: Feb 7, 2016 at 5:53 PM


Visibility: 10 mi

Pressure: 29.70 "Hg

Humidity: 70%

Dew point: 24 °F

Location of St. PaulLocation

Historic Weather in St. Paul — Graph

°F

St. Paul Temperature Yesterday

Maximum temperature yesterday: 35 °F (at 11:53 PM)
Minimum temperature yesterday: 25 °F (at 3:53 AM)
Average temperature yesterday: 30 °F

High & Low Weather Summary for the Past Weeks

 TemperatureHumidityPressure
High41 °F (Jan 30, 1:53 PM)96% (Jan 24, 12:53 AM)30.40 "Hg (Jan 24, 12:53 AM)
Low7 °F (Feb 5, 3:53 AM)50% (Feb 3, 2:53 PM)29.52 "Hg (Jan 30, 3:53 PM)
Average27 °F80%29.91 "Hg
* Reported Jan 23 4:53 PM — Feb 7 4:53 PM, St. Paul, Weather by CustomWeather, © 2016

Note: Actual official high and low records may vary slightly from our data, if they occured in-between our weather recording intervals... More about our weather records

Advertising

St. Paul Weather History for the Previous 24 Hours

 ConditionsComfort  
Time TempWeatherWind HumidityBarometerVisibility
4:53 PM
Sun, Feb 7
37 °FOvercast.15 mph76%29.65 "Hg10 mi
3:53 PM38 °FOvercast.13 mph70%29.64 "Hg10 mi
2:53 PM39 °FMostly cloudy.13 mph65%29.63 "Hg10 mi
1:53 PM39 °FOvercast.14 mph62%29.63 "Hg10 mi
12:53 PM39 °FOvercast.22 mph60%29.64 "Hg10 mi
11:53 AM39 °FPartly sunny.24 mph60%29.65 "Hg10 mi
10:53 AM39 °FSunny.21 mph57%29.65 "Hg10 mi
9:53 AM38 °FScattered clouds.20 mph65%29.64 "Hg10 mi
8:53 AM38 °FPartly sunny.15 mph68%29.65 "Hg10 mi
7:53 AM37 °FScattered clouds.13 mph70%29.64 "Hg10 mi
6:53 AM37 °FPassing clouds.13 mph73%29.65 "Hg10 mi
5:53 AM35 °FOvercast.9 mph78%29.65 "Hg10 mi
4:53 AM30 °FPassing clouds.No wind85%29.66 "Hg10 mi
3:53 AM30 °FClear.3 mph85%29.67 "Hg10 mi
2:53 AM30 °FPassing clouds.6 mph89%29.70 "Hg10 mi
1:53 AM33 °FPassing clouds.6 mph78%29.70 "Hg10 mi
12:53 AM33 °FClear.3 mph78%29.73 "Hg10 mi
11:53 PM
Sat, Feb 6
35 °FPassing clouds.3 mph75%29.74 "Hg10 mi
10:53 PM34 °FOvercast.6 mph82%29.79 "Hg10 mi
9:53 PM34 °FMostly cloudy.3 mph82%29.83 "Hg10 mi
8:53 PM34 °FLight rain. Overcast.12 mph79%29.85 "Hg10 mi
7:53 PM34 °FMostly cloudy.7 mph76%29.88 "Hg10 mi
Weather by CustomWeather, © 2016

See weather overviewHow to use our weather pages